Welcome to the New NWS' Forecast!
Most changes are behind the scenes, but click here for differences you might notice.

Regional Weather Roundup (RWR)

Issued by Gray - Portland, ME (GYX)

                            
454 
ASUS41 KGYX 232010
RWRGYX
WEATHER ROUNDUP FOR MAINE AND NEW HAMPSHIRE
NATIONAL WEATHER SERVICE GRAY ME
300 PM EST TUE JAN 23 2018

MEZ002-005-006-010-012-015-018-020-021-024-026-027-029-232100-
MAINE
  
CITY           SKY/WX    TMP DP  RH WIND       PRES   REMARKS
PORTLAND       LGT RAIN  33  32  96 VRB6      29.55F FOG              
SANFORD        MIX PCPN  32  32 100 NE7       29.53F                  
BAR HARBOR     LGT RAIN  50  49  96 S26G33    29.62F FOG              
WISCASSET      CLOUDY    32  32 100 CALM      29.59F FOG              
ROCKLAND       LGT RAIN  46  46 100 S12       29.60F VSB 1            
FRYEBURG       FRZ RAIN  32  32 100 CALM      29.58F FOG              
LEWISTONAUBURN MIX PCPN  31  30  96 MISG      29.57F                  
AUGUSTA        CLOUDY    31  30  96 N7        29.59F                  
WATERVILLE     MIX PCPN  31  29  92 N3        29.55F FOG              
BANGOR         LGT RAIN  35  35 100 E3        29.59F VSB 1/4          
GREENVILLE     NOT AVBL                                               
MILLINOCKET    FRZ RAIN  30  29  96 E8        29.63F FOG              
HOULTON        FRZ RAIN  29  27  92 VRB6G18   29.67F FOG              
PRESQUE ISLE   LGT SNOW  21  18  88 NE7       29.73F FOG              
FRENCHVILLE    BLWGSNOW  14  11  87 E10G21    29.71F VSB 3/4 WCI   1  
CARIBOU        FRZ RAIN  22  18  85 NE9       29.71F FOG              
$$

NHZ002-005-008-009-011-012-014-232100-
NEW HAMPSHIRE
  
CITY           SKY/WX    TMP DP  RH WIND       PRES   REMARKS
PORTSMOUTH     LGT RAIN  34  33  98 E6        29.50F VSB 3/8          
ROCHESTER      LGT RAIN  33  33 100 NW9       29.53F FOG              
NASHUA         FRZ RAIN  32  32 100 NW7       29.54F FOG              
MANCHESTER     LGT RAIN  33  31  92 N7        29.52F VSB 1            
CONCORD        MIX PCPN  32  30  92 NW12      29.56S FOG              
LACONIA        LGT SNOW  32  31  96 CALM      29.56F FOG              
PLYMOUTH       CLOUDY    33  32  98 CALM      29.56F FOG              
BERLIN         LGT RAIN  35  33  92 N5        29.52F                  
WHITEFIELD     LGT RAIN  37  37 100 CALM      29.53R FOG              
JAFFREY        RAIN      34  33  96 VRB3      29.52R FOG              
KEENE          LGT RAIN  35  34  96 S3        29.53F                  
LEBANON        CLOUDY    35  33  92 CALM      29.53F                  
MT WASHINGTON  LGT RAIN  32  32 100 SW40G52     N/A  VSB 1/16WCI  16  
$$

VTZ005-007-008-232100-
VERMONT
  
CITY           SKY/WX    TMP DP  RH WIND       PRES   REMARKS
ST JOHNSBURY     N/A     35  35 100 MISG      29.52F                  
MONTPELIER     CLOUDY    36  35  96 S8        29.54F                  
BURLINGTON     CLOUDY    41  39  93 CALM      29.46F                  
$$

MAZ007-012-024-CTZ003-RIZ002-NYZ038-NYZ072-232100-
SOUTHERN NEW ENGLAND AND NY
  
CITY           SKY/WX    TMP DP  RH WIND       PRES   REMARKS
BOSTON         HVY RAIN  54  53  97 S26G36    29.46F FOG              
WORCESTER      LGT RAIN  49  47  93 S10       29.47F VSB 1/2          
NANTUCKET      FOG       48  48 100 S25G33    29.60F VSB 3/4          
PROVIDENCE     LGT RAIN  55  55 100 S12       29.51F                  
HARTFORD       DRIZZLE   38  38 100 NE7       29.51F FOG              
ALBANY         FOG       47  44  90 W3        29.52S VSB 1/2          
NEW YORK CITY  PTSUNNY   59  50  72 W5        29.51F                  
$$

ANZ081-ANZ082-ANZ150-NHZ014-MEZ023>029-232100-
COASTAL MARINE OBSERVATIONS
  
STATION/POSITION TIME  TEMP    WIND        PRES    WAVE
                       AIR SEA DIR/SP/G            HT/PER
                 (UTC) (F)     (DEG/KT/KT) (MB)    (FT/S)
MOUNT DESERT ROC 2000   50     150/ 35/ 40 1004.0F
MATINICUS ROCK   1900   49     170/ 36/ 41 1002.9F
ISLE OF SHOALS   1900   42     140/  9/ 10 1001.2F
JEFFREYS LEDGE   1936      43                N/A     7/ 7
GEORGES BANK BUO 1850   54 57              1020.0    6/ 7
$$

.............KEY..............
   WCI - WIND CHILL
   TC  - TEMPERATURE IN CELSIUS
   VSB - VISIBILITY IN MILES
   HX  - HEAT INDEX
   FAIR- INDICATES FEW OR NO CLOUDS BELOW 12,000 FT, WITH NO 
         SIGNIFICANT WEATHER AND/OR OBSTRUCTIONS TO VISIBILITY.